Year,Month,Day,Hour,Minute,Value (Times are PST for windspeed in km/hr)
2016,07,14,00,01,1.90
2016,07,14,00,02,0.70
2016,07,14,00,03,3.10
2016,07,14,00,04,0.90
2016,07,14,00,06,0.90
2016,07,14,00,07,1.70
2016,07,14,00,08,2.80
2016,07,14,00,09,1.70
2016,07,14,00,10,3.30
2016,07,14,00,11,2.20
2016,07,14,00,12,0.90
2016,07,14,00,13,0.20
2016,07,14,00,14,0.00
2016,07,14,00,15,0.40
2016,07,14,00,16,0.20
2016,07,14,00,17,0.20
2016,07,14,00,18,0.00
2016,07,14,00,19,0.00
2016,07,14,00,20,0.40
2016,07,14,00,27,1.90
2016,07,14,00,28,1.70
2016,07,14,00,29,5.20
2016,07,14,00,31,3.00
2016,07,14,00,32,4.30
2016,07,14,00,33,3.50
2016,07,14,00,34,4.40
2016,07,14,00,36,4.30
2016,07,14,00,37,4.10
2016,07,14,00,38,4.30
2016,07,14,00,39,3.50
2016,07,14,00,41,3.70
2016,07,14,00,42,2.80
2016,07,14,00,43,1.30
2016,07,14,00,44,1.10
2016,07,14,00,46,1.30
2016,07,14,01,27,0.20
2016,07,14,01,28,1.90
2016,07,14,01,29,0.40
2016,07,14,01,31,1.90
2016,07,14,01,32,1.30
2016,07,14,01,33,2.00
2016,07,14,01,34,1.70
2016,07,14,01,36,2.00
2016,07,14,01,37,4.30
2016,07,14,01,38,5.00
2016,07,14,01,39,3.50
2016,07,14,01,41,4.80
2016,07,14,01,42,8.00
2016,07,14,01,43,5.90
2016,07,14,01,44,5.70
2016,07,14,01,46,5.70
2016,07,14,01,47,7.60
2016,07,14,01,48,6.50
2016,07,14,01,49,6.90
2016,07,14,01,51,6.50
2016,07,14,01,52,8.50
2016,07,14,01,53,8.70
2016,07,14,01,54,8.70
2016,07,14,01,56,8.70
2016,07,14,01,57,9.30
2016,07,14,01,58,8.30
2016,07,14,01,59,8.30
2016,07,14,02,01,8.50
2016,07,14,02,02,8.50
2016,07,14,02,03,9.10
2016,07,14,02,04,9.60
2016,07,14,02,06,9.30
2016,07,14,02,07,8.90
2016,07,14,02,08,8.50
2016,07,14,02,09,9.10
2016,07,14,02,11,8.90
2016,07,14,02,12,9.10
2016,07,14,02,13,8.50
2016,07,14,02,14,7.00
2016,07,14,02,15,8.70
2016,07,14,02,16,8.70
2016,07,14,02,17,9.10
2016,07,14,02,18,8.10
2016,07,14,02,19,7.80
2016,07,14,02,20,7.80
2016,07,14,02,21,8.00
2016,07,14,02,22,7.20
2016,07,14,02,23,8.00
2016,07,14,02,24,8.90
2016,07,14,02,25,7.20
2016,07,14,02,26,7.20
2016,07,14,02,27,7.00
2016,07,14,02,28,7.20
2016,07,14,02,29,7.00
2016,07,14,02,30,7.20
2016,07,14,02,31,8.30
2016,07,14,02,32,7.60
2016,07,14,02,33,7.80
2016,07,14,02,34,7.80
2016,07,14,02,35,8.50
2016,07,14,02,36,8.50
2016,07,14,02,37,6.90
2016,07,14,02,38,8.30
2016,07,14,02,39,8.50
2016,07,14,02,40,8.30
2016,07,14,02,41,7.80
2016,07,14,02,42,7.60
2016,07,14,02,43,7.80
2016,07,14,02,44,7.40
2016,07,14,02,45,7.00
2016,07,14,02,46,8.50
2016,07,14,02,47,8.10
2016,07,14,02,48,7.20
2016,07,14,02,49,5.90
2016,07,14,02,50,7.00
2016,07,14,02,51,6.70
2016,07,14,02,52,7.60
2016,07,14,02,53,6.90
2016,07,14,02,54,7.60
2016,07,14,02,55,7.00
2016,07,14,02,56,8.10
2016,07,14,02,57,8.10
2016,07,14,02,58,7.40
2016,07,14,02,59,8.00
2016,07,14,03,00,7.00
2016,07,14,03,01,7.60
2016,07,14,03,02,7.40
2016,07,14,03,03,7.80
2016,07,14,03,04,6.70
2016,07,14,03,05,7.40
2016,07,14,03,06,7.00
2016,07,14,03,07,8.90
2016,07,14,03,08,7.20
2016,07,14,03,09,8.50
2016,07,14,03,10,7.60
2016,07,14,03,11,6.90
2016,07,14,03,12,7.80
2016,07,14,03,13,7.20
2016,07,14,03,14,7.20
2016,07,14,03,15,7.60
2016,07,14,03,16,8.10
2016,07,14,03,17,8.50
2016,07,14,03,18,6.70
2016,07,14,03,19,8.90
2016,07,14,03,20,9.10
2016,07,14,03,21,9.10
2016,07,14,03,22,7.60
2016,07,14,03,23,7.20
2016,07,14,03,24,8.00
2016,07,14,03,25,6.70
2016,07,14,03,26,7.80
2016,07,14,03,27,6.70
2016,07,14,03,28,7.60
2016,07,14,03,29,7.60
2016,07,14,03,30,7.40
2016,07,14,03,31,6.90
2016,07,14,03,32,7.00
2016,07,14,03,33,7.00
2016,07,14,03,34,6.90
2016,07,14,03,35,6.50
2016,07,14,03,36,6.50
2016,07,14,03,37,5.70
2016,07,14,03,38,5.90
2016,07,14,03,39,5.00
2016,07,14,03,40,6.10
2016,07,14,03,41,4.80
2016,07,14,03,43,4.60
2016,07,14,03,44,3.10
2016,07,14,03,46,3.10
2016,07,14,03,47,3.50
2016,07,14,03,48,3.90
2016,07,14,03,49,2.60
2016,07,14,03,51,2.80
2016,07,14,03,52,4.10
2016,07,14,03,53,5.60
2016,07,14,03,54,3.30
2016,07,14,03,56,2.40
2016,07,14,03,57,3.00
2016,07,14,03,58,0.90
2016,07,14,03,59,2.60
2016,07,14,04,01,3.10
2016,07,14,04,02,1.90
2016,07,14,04,03,1.70
2016,07,14,04,04,2.00
2016,07,14,04,06,0.70
2016,07,14,04,07,0.00
2016,07,14,04,08,0.00
2016,07,14,04,09,0.90
2016,07,14,04,11,0.60
2016,07,14,04,12,1.30
2016,07,14,04,13,0.60
2016,07,14,04,14,2.00
2016,07,14,04,16,1.70
2016,07,14,04,17,1.70
2016,07,14,04,18,1.70
2016,07,14,04,19,1.50
2016,07,14,04,21,2.20
2016,07,14,04,22,1.50
2016,07,14,04,23,2.20
2016,07,14,04,24,2.20
2016,07,14,04,26,0.20
2016,07,14,04,27,0.90
2016,07,14,04,28,2.20
2016,07,14,04,29,3.00
2016,07,14,04,31,1.10
2016,07,14,04,32,0.70
2016,07,14,04,33,1.50
2016,07,14,04,34,2.00
2016,07,14,04,36,2.00
2016,07,14,04,37,3.30
2016,07,14,05,27,4.60
2016,07,14,05,28,4.80
2016,07,14,05,29,2.00
2016,07,14,05,31,3.50
2016,07,14,05,32,1.50
2016,07,14,05,33,3.10
2016,07,14,05,34,2.40
2016,07,14,05,36,3.10
2016,07,14,05,37,5.70
2016,07,14,05,38,3.10
2016,07,14,05,39,4.40
2016,07,14,05,41,4.30
2016,07,14,05,42,3.50
2016,07,14,05,43,3.50
2016,07,14,05,44,2.20
2016,07,14,05,46,0.60
2016,07,14,06,27,2.60
2016,07,14,06,28,2.00
2016,07,14,06,29,1.50
2016,07,14,06,31,2.20
2016,07,14,06,32,2.20
2016,07,14,06,33,1.30
2016,07,14,06,34,1.90
2016,07,14,06,36,0.70
2016,07,14,06,37,1.10
2016,07,14,06,38,0.00
2016,07,14,06,39,0.60
2016,07,14,06,41,0.20
2016,07,14,06,42,0.60
2016,07,14,06,43,0.70
2016,07,14,06,44,0.40
2016,07,14,06,46,0.20
2016,07,14,06,47,0.20
2016,07,14,06,48,0.70
2016,07,14,06,49,1.30
2016,07,14,06,51,2.20
2016,07,14,06,52,0.90
2016,07,14,06,53,0.90
2016,07,14,06,54,3.50
2016,07,14,06,56,2.20
2016,07,14,06,57,1.10
2016,07,14,06,58,1.90
2016,07,14,06,59,1.10
2016,07,14,07,01,0.00
2016,07,14,07,02,0.00
2016,07,14,07,03,0.90
2016,07,14,07,04,1.70
2016,07,14,07,06,0.70
2016,07,14,07,07,0.40
2016,07,14,07,08,0.90
2016,07,14,07,09,0.00
2016,07,14,07,11,1.10
2016,07,14,07,12,2.00
2016,07,14,07,13,1.70
2016,07,14,07,14,2.00
2016,07,14,07,15,0.90
2016,07,14,07,16,0.70
2016,07,14,07,17,0.60
2016,07,14,07,18,1.10
2016,07,14,07,19,1.50
2016,07,14,07,20,2.60
2016,07,14,07,21,3.10
2016,07,14,07,22,1.30
2016,07,14,07,23,1.70
2016,07,14,07,24,2.40
2016,07,14,07,25,1.50
2016,07,14,07,26,1.90
2016,07,14,07,27,0.90
2016,07,14,07,28,0.20
2016,07,14,07,29,0.90
2016,07,14,07,30,0.90
2016,07,14,07,31,1.50
2016,07,14,07,32,2.20
2016,07,14,07,33,3.00
2016,07,14,07,34,4.30
2016,07,14,07,35,4.40
2016,07,14,07,36,3.70
2016,07,14,07,37,3.30
2016,07,14,07,38,3.30
2016,07,14,07,39,4.10
2016,07,14,07,40,3.70
2016,07,14,07,41,4.40
2016,07,14,07,42,5.90
2016,07,14,07,43,4.40
2016,07,14,07,44,3.50
2016,07,14,07,45,3.70
2016,07,14,07,46,4.80
2016,07,14,07,47,3.00
2016,07,14,07,48,1.90
2016,07,14,07,49,5.00
2016,07,14,07,50,3.30
2016,07,14,07,51,2.60
2016,07,14,07,52,3.30
2016,07,14,07,53,2.40
2016,07,14,07,54,3.50
2016,07,14,07,55,5.00
2016,07,14,07,56,5.90
2016,07,14,07,57,5.00
2016,07,14,07,58,3.30
2016,07,14,07,59,4.30
2016,07,14,08,00,3.00
2016,07,14,08,01,3.50
2016,07,14,08,02,3.10
2016,07,14,08,03,3.30
2016,07,14,08,04,3.90
2016,07,14,08,05,5.00
2016,07,14,08,06,4.30
2016,07,14,08,07,4.40
2016,07,14,08,08,3.10
2016,07,14,08,09,4.30
2016,07,14,08,10,3.70
2016,07,14,08,11,5.20
2016,07,14,08,12,3.00
2016,07,14,08,13,2.20
2016,07,14,08,14,3.70
2016,07,14,08,15,4.80
2016,07,14,08,16,4.10
2016,07,14,08,17,3.10
2016,07,14,08,18,4.80
2016,07,14,08,19,3.50
2016,07,14,08,22,2.80
2016,07,14,08,23,5.00
2016,07,14,08,24,6.10
2016,07,14,08,26,4.30
2016,07,14,08,27,5.70
2016,07,14,08,28,5.00
2016,07,14,08,29,4.30
2016,07,14,08,31,4.60
2016,07,14,08,32,4.30
2016,07,14,08,33,3.10
2016,07,14,08,34,4.80
2016,07,14,08,36,5.20
2016,07,14,08,37,4.60
2016,07,14,08,38,6.10
2016,07,14,08,39,4.80
2016,07,14,08,41,5.00
2016,07,14,08,42,5.00
2016,07,14,08,43,4.80
2016,07,14,08,44,4.80
2016,07,14,08,46,4.60
2016,07,14,08,47,5.90
2016,07,14,08,48,8.00
2016,07,14,08,49,6.70
2016,07,14,08,51,7.40
2016,07,14,08,52,5.60
2016,07,14,08,53,6.90
2016,07,14,08,54,5.00
2016,07,14,08,56,5.70
2016,07,14,08,57,5.40
2016,07,14,08,58,5.90
2016,07,14,08,59,4.40
2016,07,14,09,01,6.70
2016,07,14,09,02,7.40
2016,07,14,09,03,5.20
2016,07,14,09,04,3.00
2016,07,14,09,06,3.70
2016,07,14,09,07,3.00
2016,07,14,09,08,5.00
2016,07,14,09,09,6.70
2016,07,14,09,11,5.20
2016,07,14,09,12,3.90
2016,07,14,09,13,5.00
2016,07,14,09,14,4.60
2016,07,14,09,16,5.40
2016,07,14,09,17,5.00
2016,07,14,09,18,5.60
2016,07,14,09,19,7.40
2016,07,14,09,21,6.70
2016,07,14,09,22,6.70
2016,07,14,09,23,6.30
2016,07,14,09,24,8.50
2016,07,14,09,26,7.00
2016,07,14,09,27,5.90
2016,07,14,09,28,6.70
2016,07,14,09,29,6.30
2016,07,14,09,31,6.50
2016,07,14,09,32,7.00
2016,07,14,09,33,8.50
2016,07,14,09,34,6.30
2016,07,14,09,36,6.30
2016,07,14,09,37,6.30
2016,07,14,09,38,6.30
2016,07,14,09,39,8.30
2016,07,14,09,40,6.10
2016,07,14,09,41,5.00
2016,07,14,09,42,5.60
2016,07,14,09,43,6.90
2016,07,14,09,44,7.80
2016,07,14,09,45,7.80
2016,07,14,09,46,6.50
2016,07,14,09,47,6.30
2016,07,14,09,48,3.30
2016,07,14,09,49,4.60
2016,07,14,09,50,7.20
2016,07,14,09,51,7.00
2016,07,14,09,52,4.40
2016,07,14,09,53,3.50
2016,07,14,09,54,4.30
2016,07,14,09,55,4.30
2016,07,14,09,56,4.80
2016,07,14,09,57,6.70
2016,07,14,09,58,5.20
2016,07,14,09,59,4.80
2016,07,14,10,00,4.60
2016,07,14,10,01,5.60
2016,07,14,10,02,5.60
2016,07,14,10,03,5.70
2016,07,14,10,04,3.90
2016,07,14,10,05,2.80
2016,07,14,10,06,4.10
2016,07,14,10,07,4.10
2016,07,14,10,08,5.20
2016,07,14,10,09,5.40
2016,07,14,10,10,5.00
2016,07,14,10,11,4.10
2016,07,14,10,12,1.70
2016,07,14,10,13,3.00
2016,07,14,10,14,3.10
2016,07,14,10,15,3.70
2016,07,14,10,16,3.30
2016,07,14,10,17,5.20
2016,07,14,10,18,4.10
2016,07,14,10,19,6.30
2016,07,14,10,20,7.00
2016,07,14,10,21,5.60
2016,07,14,10,22,5.70
2016,07,14,10,23,5.40
2016,07,14,10,24,3.90
2016,07,14,10,25,7.00
2016,07,14,10,26,5.90
2016,07,14,10,27,4.80
2016,07,14,10,28,5.40
2016,07,14,10,29,5.70
2016,07,14,10,30,4.60
2016,07,14,10,31,6.90
2016,07,14,10,32,5.60
2016,07,14,10,33,7.20
2016,07,14,10,34,6.90
2016,07,14,10,35,5.00
2016,07,14,10,36,5.00
2016,07,14,10,37,6.30
2016,07,14,10,38,5.00
2016,07,14,10,39,7.20
2016,07,14,10,40,5.60
2016,07,14,10,41,5.00
2016,07,14,10,42,6.70
2016,07,14,10,43,5.40
2016,07,14,10,44,6.90
2016,07,14,10,45,7.20
2016,07,14,10,46,5.70
2016,07,14,10,47,5.90
2016,07,14,10,48,5.60
2016,07,14,10,49,6.30
2016,07,14,10,50,7.60
2016,07,14,10,51,5.90
2016,07,14,10,52,7.20
2016,07,14,10,53,5.90
2016,07,14,10,54,5.20
2016,07,14,10,55,5.40
2016,07,14,10,56,6.30
2016,07,14,10,57,4.80
2016,07,14,10,58,6.30
2016,07,14,10,59,6.70
2016,07,14,11,00,6.90
2016,07,14,11,01,8.70
2016,07,14,11,02,7.20
2016,07,14,11,03,8.30
2016,07,14,11,04,7.00
2016,07,14,11,06,7.20
2016,07,14,11,08,7.20
2016,07,14,11,09,7.40
2016,07,14,11,11,5.90
2016,07,14,11,12,8.00
2016,07,14,11,13,7.80
2016,07,14,11,14,6.50
2016,07,14,11,16,6.10
2016,07,14,11,17,7.00
2016,07,14,11,18,7.60
2016,07,14,11,19,5.90
2016,07,14,11,21,4.80
2016,07,14,11,22,5.60
2016,07,14,11,23,4.10
2016,07,14,11,24,5.70
2016,07,14,11,26,5.20
2016,07,14,11,27,5.70
2016,07,14,11,28,5.60
2016,07,14,11,29,5.60
2016,07,14,11,31,7.40
2016,07,14,11,32,5.90
2016,07,14,11,33,5.40
2016,07,14,11,34,5.60
2016,07,14,11,36,4.40
2016,07,14,11,37,4.80
2016,07,14,11,38,4.30
2016,07,14,11,39,3.30
2016,07,14,11,41,3.50
2016,07,14,11,42,3.30
2016,07,14,11,43,3.50
2016,07,14,11,44,3.50
2016,07,14,11,46,4.10
2016,07,14,11,47,3.10
2016,07,14,11,48,3.50
2016,07,14,11,49,4.10
2016,07,14,11,51,5.70
2016,07,14,11,52,5.00
2016,07,14,11,53,5.60
2016,07,14,11,54,4.30
2016,07,14,11,56,7.40
2016,07,14,11,57,8.70
2016,07,14,11,58,10.00
2016,07,14,11,59,10.90
2016,07,14,12,01,13.50
2016,07,14,12,02,12.00
2016,07,14,12,03,10.90
2016,07,14,12,04,10.60
2016,07,14,12,06,10.20
2016,07,14,12,07,10.90
2016,07,14,12,08,11.10
2016,07,14,12,09,12.60
2016,07,14,12,11,9.10
2016,07,14,12,12,9.40
2016,07,14,12,13,9.60
2016,07,14,12,14,7.60
2016,07,14,12,16,7.00
2016,07,14,12,17,9.60
2016,07,14,12,18,7.60
2016,07,14,12,19,8.70
2016,07,14,12,21,9.60
2016,07,14,12,22,8.90
2016,07,14,12,23,7.40
2016,07,14,12,24,7.40
2016,07,14,12,25,7.40
2016,07,14,12,26,8.30
2016,07,14,12,27,9.60
2016,07,14,12,28,8.90
2016,07,14,12,29,7.80
2016,07,14,12,30,6.30
2016,07,14,12,31,6.90
2016,07,14,12,32,8.10
2016,07,14,12,33,7.60
2016,07,14,12,34,6.90
2016,07,14,12,36,7.80
2016,07,14,12,37,8.10
2016,07,14,12,38,9.10
2016,07,14,12,39,8.90
2016,07,14,12,40,8.70
2016,07,14,12,41,7.60
2016,07,14,12,42,10.40
2016,07,14,12,43,10.00
2016,07,14,12,44,9.60
2016,07,14,12,45,10.90
2016,07,14,12,46,9.10
2016,07,14,12,47,7.60
2016,07,14,12,48,4.80
2016,07,14,12,49,5.70
2016,07,14,12,50,6.10
2016,07,14,12,51,9.40
2016,07,14,12,52,10.40
2016,07,14,12,53,11.90
2016,07,14,12,54,11.70
2016,07,14,12,55,10.60
2016,07,14,12,56,10.70
2016,07,14,12,57,8.10
2016,07,14,12,58,7.20
2016,07,14,12,59,6.30
2016,07,14,13,00,5.70
2016,07,14,13,01,5.60
2016,07,14,13,02,6.70
2016,07,14,13,03,6.10
2016,07,14,13,04,6.90
2016,07,14,13,05,5.20
2016,07,14,13,06,6.30
2016,07,14,13,07,7.60
2016,07,14,13,08,5.40
2016,07,14,13,09,7.80
2016,07,14,13,10,8.00
2016,07,14,13,11,8.90
2016,07,14,13,12,9.30
2016,07,14,13,13,9.10
2016,07,14,13,14,11.90
2016,07,14,13,15,9.10
2016,07,14,13,16,10.90
2016,07,14,13,17,8.50
2016,07,14,13,18,8.10
2016,07,14,13,19,8.70
2016,07,14,13,20,10.00
2016,07,14,13,21,8.90
2016,07,14,13,22,8.70
2016,07,14,13,23,7.20
2016,07,14,13,24,9.30
2016,07,14,13,25,7.40
2016,07,14,13,26,8.90
2016,07,14,13,27,9.60
2016,07,14,13,28,7.60
2016,07,14,13,29,7.40
2016,07,14,13,30,8.90
2016,07,14,13,31,7.40
2016,07,14,13,32,7.60
2016,07,14,13,33,8.90
2016,07,14,13,34,6.30
2016,07,14,13,35,6.90
2016,07,14,13,36,6.10
2016,07,14,13,37,10.40
2016,07,14,13,38,7.00
2016,07,14,13,39,5.90
2016,07,14,13,40,6.10
2016,07,14,13,41,7.40
2016,07,14,13,42,6.70
2016,07,14,13,43,8.50
2016,07,14,13,44,5.20
2016,07,14,13,45,5.70
2016,07,14,13,46,7.20
2016,07,14,13,47,4.80
2016,07,14,13,48,8.00
2016,07,14,13,49,5.00
2016,07,14,13,51,9.10
2016,07,14,13,52,6.90
2016,07,14,13,54,6.50
2016,07,14,13,56,8.90
2016,07,14,13,57,6.70
2016,07,14,13,58,10.20
2016,07,14,13,59,10.20
2016,07,14,14,01,10.70
2016,07,14,14,02,7.60
2016,07,14,14,03,9.10
2016,07,14,14,04,7.60
2016,07,14,14,06,4.10
2016,07,14,14,07,7.00
2016,07,14,14,08,4.60
2016,07,14,14,09,5.90
2016,07,14,14,11,6.10
2016,07,14,14,12,5.40
2016,07,14,14,13,8.50
2016,07,14,14,14,7.20
2016,07,14,14,16,8.30
2016,07,14,14,17,8.50
2016,07,14,14,18,6.10
2016,07,14,14,19,9.30
2016,07,14,14,21,12.00
2016,07,14,14,22,8.50
2016,07,14,14,23,6.90
2016,07,14,14,24,9.80
2016,07,14,14,26,11.50
2016,07,14,14,27,9.30
2016,07,14,14,28,11.30
2016,07,14,14,29,6.50
2016,07,14,14,31,7.40
2016,07,14,14,32,7.20
2016,07,14,14,33,14.10
2016,07,14,14,34,11.70
2016,07,14,14,36,15.40
2016,07,14,14,37,10.20
2016,07,14,14,38,10.70
2016,07,14,14,39,7.80
2016,07,14,14,41,10.60
2016,07,14,14,42,10.90
2016,07,14,14,43,11.50
2016,07,14,14,44,10.00
2016,07,14,14,46,12.40
2016,07,14,14,47,13.10
2016,07,14,14,48,15.90
2016,07,14,14,49,12.80
2016,07,14,14,51,11.90
2016,07,14,14,52,10.60
2016,07,14,14,53,15.20
2016,07,14,14,54,14.10
2016,07,14,14,56,14.80
2016,07,14,14,57,10.70
2016,07,14,14,58,10.00
2016,07,14,14,59,14.80
2016,07,14,15,01,10.40
2016,07,14,15,02,12.20
2016,07,14,15,03,8.10
2016,07,14,15,04,9.80
2016,07,14,15,06,11.10
2016,07,14,15,07,8.70
2016,07,14,15,08,10.70
2016,07,14,15,09,11.30
2016,07,14,15,11,8.70
2016,07,14,15,12,10.40
2016,07,14,15,13,8.30
2016,07,14,15,14,5.90
2016,07,14,15,15,11.30
2016,07,14,15,16,10.20
2016,07,14,15,17,11.70
2016,07,14,15,18,11.50
2016,07,14,15,19,13.50
2016,07,14,15,20,16.30
2016,07,14,15,21,13.70
2016,07,14,15,22,8.10
2016,07,14,15,23,11.90
2016,07,14,15,24,12.00
2016,07,14,15,25,11.50
2016,07,14,15,26,13.70
2016,07,14,15,27,11.30
2016,07,14,15,28,11.50
2016,07,14,15,29,16.30
2016,07,14,15,30,13.50
2016,07,14,15,31,14.80
2016,07,14,15,32,16.10
2016,07,14,15,33,13.70
2016,07,14,15,34,15.20
2016,07,14,15,35,17.20
2016,07,14,15,36,16.70
2016,07,14,15,37,14.80
2016,07,14,15,38,10.90
2016,07,14,15,39,7.20
2016,07,14,15,40,9.60
2016,07,14,15,41,9.80
2016,07,14,15,42,10.40
2016,07,14,15,43,10.00
2016,07,14,15,44,13.10
2016,07,14,15,45,13.70
2016,07,14,15,46,12.20
2016,07,14,15,47,6.90
2016,07,14,15,48,10.00
2016,07,14,15,49,15.40
2016,07,14,15,50,13.70
2016,07,14,15,51,13.10
2016,07,14,15,52,14.40
2016,07,14,15,53,12.80
2016,07,14,15,54,13.90
2016,07,14,15,55,13.30
2016,07,14,15,56,11.90
2016,07,14,15,57,10.70
2016,07,14,15,58,14.40
2016,07,14,15,59,16.10
2016,07,14,16,00,14.60
2016,07,14,16,01,17.00
2016,07,14,16,02,18.50
2016,07,14,16,03,17.60
2016,07,14,16,04,15.20
2016,07,14,16,05,17.00
2016,07,14,16,06,18.10
2016,07,14,16,07,16.30
2016,07,14,16,08,18.30
2016,07,14,16,09,20.70
2016,07,14,16,10,19.30
2016,07,14,16,11,17.80
2016,07,14,16,12,16.70
2016,07,14,16,13,17.40
2016,07,14,16,14,17.20
2016,07,14,16,15,16.50
2016,07,14,16,16,18.50
2016,07,14,16,17,18.30
2016,07,14,16,18,17.20
2016,07,14,16,19,17.60
2016,07,14,16,20,17.40
2016,07,14,16,21,17.00
2016,07,14,16,22,18.30
2016,07,14,16,23,18.50
2016,07,14,16,24,18.90
2016,07,14,16,25,16.90
2016,07,14,16,26,17.20
2016,07,14,16,27,14.60
2016,07,14,16,28,15.20
2016,07,14,16,29,13.90
2016,07,14,16,30,9.80
2016,07,14,16,31,11.10
2016,07,14,16,32,11.70
2016,07,14,16,33,8.70
2016,07,14,16,34,8.30
2016,07,14,16,35,13.00
2016,07,14,16,36,13.50
2016,07,14,16,37,13.30
2016,07,14,16,38,12.20
2016,07,14,16,39,12.60
2016,07,14,16,40,10.00
2016,07,14,16,42,12.20
2016,07,14,16,43,12.00
2016,07,14,16,44,12.40
2016,07,14,16,46,12.20
2016,07,14,16,47,13.00
2016,07,14,16,48,9.80
2016,07,14,16,49,6.90
2016,07,14,16,51,9.40
2016,07,14,16,52,10.20
2016,07,14,16,53,3.10
2016,07,14,16,54,3.10
2016,07,14,16,56,13.90
2016,07,14,16,57,10.70
2016,07,14,16,58,8.00
2016,07,14,16,59,10.70
2016,07,14,17,01,7.80
2016,07,14,17,02,12.80
2016,07,14,17,03,4.80
2016,07,14,17,04,11.10
2016,07,14,17,06,13.30
2016,07,14,17,07,14.80
2016,07,14,17,08,10.40
2016,07,14,17,09,9.10
2016,07,14,17,11,8.10
2016,07,14,17,12,11.90
2016,07,14,17,13,15.70
2016,07,14,17,14,17.80
2016,07,14,17,16,13.70
2016,07,14,17,17,15.90
2016,07,14,17,18,13.30
2016,07,14,17,19,13.50
2016,07,14,17,21,7.40
2016,07,14,17,22,25.60
2016,07,14,17,23,29.30
2016,07,14,17,24,28.20
2016,07,14,17,26,25.40
2016,07,14,17,27,20.90
2016,07,14,17,28,25.60
2016,07,14,17,29,20.60
2016,07,14,17,31,21.90
2016,07,14,17,32,19.40
2016,07,14,17,33,26.10
2016,07,14,17,34,29.80
2016,07,14,17,36,34.80
2016,07,14,17,37,31.30
2016,07,14,17,38,27.00
2016,07,14,17,39,27.00
2016,07,14,17,41,28.90
2016,07,14,17,42,28.00
2016,07,14,17,43,29.40
2016,07,14,17,44,27.00
2016,07,14,17,46,26.70
2016,07,14,17,47,23.90
2016,07,14,17,48,20.90
2016,07,14,17,49,22.60
2016,07,14,17,51,25.00
2016,07,14,17,52,28.00
2016,07,14,17,53,27.20
2016,07,14,17,54,24.60
2016,07,14,17,55,25.40
2016,07,14,17,56,26.50
2016,07,14,17,57,25.60
2016,07,14,17,58,24.80
2016,07,14,17,59,22.20
2016,07,14,18,00,20.20
2016,07,14,18,01,20.20
2016,07,14,18,02,20.20
2016,07,14,18,03,19.80
2016,07,14,18,04,18.00
2016,07,14,18,06,20.90
2016,07,14,18,07,21.10
2016,07,14,18,08,17.40
2016,07,14,18,09,18.70
2016,07,14,18,10,18.50
2016,07,14,18,11,16.90
2016,07,14,18,12,14.60
2016,07,14,18,13,12.40
2016,07,14,18,14,13.70
2016,07,14,18,15,11.50
2016,07,14,18,16,11.10
2016,07,14,18,17,13.00
2016,07,14,18,18,16.30
2016,07,14,18,19,12.80
2016,07,14,18,20,14.80
2016,07,14,18,21,15.60
2016,07,14,18,22,12.60
2016,07,14,18,23,9.60
2016,07,14,18,24,10.70
2016,07,14,18,25,10.40
2016,07,14,18,26,11.10
2016,07,14,18,27,9.40
2016,07,14,18,28,8.70
2016,07,14,18,29,10.90
2016,07,14,18,30,15.20
2016,07,14,18,31,14.80
2016,07,14,18,32,11.10
2016,07,14,18,33,13.50
2016,07,14,18,34,13.70
2016,07,14,18,35,15.00
2016,07,14,18,36,16.30
2016,07,14,18,37,16.70
2016,07,14,18,38,13.10
2016,07,14,18,39,14.40
2016,07,14,18,40,12.40
2016,07,14,18,41,14.10
2016,07,14,18,42,12.20
2016,07,14,18,43,12.20
2016,07,14,18,44,10.60
2016,07,14,18,45,8.30
2016,07,14,18,46,8.50
2016,07,14,18,47,15.20
2016,07,14,18,48,9.80
2016,07,14,18,49,14.80
2016,07,14,18,56,9.80
2016,07,14,18,57,10.90
2016,07,14,18,58,11.10
2016,07,14,18,59,10.40
2016,07,14,19,00,14.40
2016,07,14,19,01,12.80
2016,07,14,19,03,8.70
2016,07,14,19,04,8.70
2016,07,14,19,06,11.10
2016,07,14,19,07,10.60
2016,07,14,19,08,9.10
2016,07,14,19,09,9.10
2016,07,14,19,11,7.00
2016,07,14,19,12,5.70
2016,07,14,19,13,4.60
2016,07,14,19,14,8.50
2016,07,14,19,16,8.00
2016,07,14,19,17,9.80
2016,07,14,19,18,8.90
2016,07,14,19,19,8.30
2016,07,14,19,21,8.90
2016,07,14,19,22,9.10
2016,07,14,19,23,9.40
2016,07,14,19,24,9.30
2016,07,14,19,26,8.10
2016,07,14,19,27,12.40
2016,07,14,19,28,11.50
2016,07,14,19,29,13.70
2016,07,14,19,31,13.50
2016,07,14,19,32,13.90
2016,07,14,19,33,15.40
2016,07,14,19,34,13.30
2016,07,14,19,36,8.70
2016,07,14,19,37,7.00
2016,07,14,19,38,8.10
2016,07,14,19,39,5.60
2016,07,14,19,41,6.90
2016,07,14,19,42,5.00
2016,07,14,19,43,5.00
2016,07,14,19,44,5.20
2016,07,14,19,46,5.20
2016,07,14,19,47,3.30
2016,07,14,19,48,3.10
2016,07,14,19,49,3.10
2016,07,14,19,51,0.40
2016,07,14,19,52,0.70
2016,07,14,19,53,0.20
2016,07,14,19,54,1.10
2016,07,14,19,55,0.60
2016,07,14,19,56,1.70
2016,07,14,19,57,1.70
2016,07,14,19,58,2.80
2016,07,14,19,59,1.50
2016,07,14,20,00,0.40
2016,07,14,20,01,0.40
2016,07,14,20,02,0.00
2016,07,14,20,03,0.90
2016,07,14,20,04,0.60
2016,07,14,20,06,1.10
2016,07,14,20,07,0.70
2016,07,14,20,08,0.00
2016,07,14,20,09,0.70
2016,07,14,20,10,1.70
2016,07,14,20,11,1.90
2016,07,14,20,12,2.00
2016,07,14,20,13,2.00
2016,07,14,20,14,2.00
2016,07,14,20,15,3.50
2016,07,14,20,16,8.10
2016,07,14,20,17,6.10
2016,07,14,20,18,4.30
2016,07,14,20,19,6.50
2016,07,14,20,20,4.40
2016,07,14,20,21,3.90
2016,07,14,20,22,3.90
2016,07,14,20,23,3.50
2016,07,14,20,24,3.00
2016,07,14,20,25,3.70
2016,07,14,20,26,4.40
2016,07,14,20,27,4.40
2016,07,14,20,28,3.30
2016,07,14,20,29,5.20
2016,07,14,20,30,6.70
2016,07,14,20,31,6.10
2016,07,14,20,32,4.10
2016,07,14,20,33,4.60
2016,07,14,20,34,4.40
2016,07,14,20,35,3.10
2016,07,14,20,36,3.70
2016,07,14,20,37,8.10
2016,07,14,20,38,5.00
2016,07,14,20,39,7.20
2016,07,14,20,40,5.40
2016,07,14,20,41,4.80
2016,07,14,20,42,5.40
2016,07,14,20,43,6.90
2016,07,14,20,44,3.50
2016,07,14,20,45,4.30
2016,07,14,20,46,2.80
2016,07,14,20,47,3.50
2016,07,14,20,48,3.90
2016,07,14,20,49,4.60
2016,07,14,20,50,4.40
2016,07,14,20,51,4.40
2016,07,14,20,52,3.90
2016,07,14,20,53,4.60
2016,07,14,20,54,6.10
2016,07,14,20,55,5.20
2016,07,14,20,56,5.60
2016,07,14,20,57,5.70
2016,07,14,20,58,3.90
2016,07,14,20,59,4.40
2016,07,14,21,00,5.40
2016,07,14,21,01,6.10
2016,07,14,21,02,4.40
2016,07,14,21,03,6.30
2016,07,14,21,04,6.10
2016,07,14,21,05,5.60
2016,07,14,21,06,5.40
2016,07,14,21,07,5.00
2016,07,14,21,08,5.70
2016,07,14,21,09,5.40
2016,07,14,21,10,4.40
2016,07,14,21,11,5.00
2016,07,14,21,12,6.90
2016,07,14,21,13,7.40
2016,07,14,21,14,4.80
2016,07,14,21,15,5.70
2016,07,14,21,16,7.40
2016,07,14,21,17,5.70
2016,07,14,21,18,6.30
2016,07,14,21,19,7.00
2016,07,14,21,20,6.10
2016,07,14,21,21,5.40
2016,07,14,21,22,5.20
2016,07,14,21,23,4.80
2016,07,14,21,24,4.80
2016,07,14,21,25,4.80
2016,07,14,21,26,3.70
2016,07,14,21,27,4.80
2016,07,14,21,28,3.90
2016,07,14,21,29,7.60
2016,07,14,21,31,5.60
2016,07,14,21,32,5.00
2016,07,14,21,33,6.10
2016,07,14,21,34,7.40
2016,07,14,21,36,6.70
2016,07,14,21,37,5.00
2016,07,14,21,38,6.10
2016,07,14,21,39,8.90
2016,07,14,21,41,7.40
2016,07,14,21,42,6.90
2016,07,14,21,43,6.90
2016,07,14,21,44,7.00
2016,07,14,21,46,6.70
2016,07,14,21,47,7.20
2016,07,14,21,48,5.40
2016,07,14,21,49,6.70
2016,07,14,21,51,5.70
2016,07,14,21,52,7.20
2016,07,14,21,53,5.90
2016,07,14,21,54,5.70
2016,07,14,21,56,8.90
2016,07,14,21,57,7.60
2016,07,14,21,58,6.90
2016,07,14,21,59,6.30
2016,07,14,22,01,6.10
2016,07,14,22,02,4.60
2016,07,14,22,03,3.70
2016,07,14,22,04,7.00
2016,07,14,22,06,5.60
2016,07,14,22,07,4.80
2016,07,14,22,08,7.60
2016,07,14,22,09,8.00
2016,07,14,22,11,4.30
2016,07,14,22,12,7.80
2016,07,14,22,13,7.40
2016,07,14,22,14,9.30
2016,07,14,22,16,8.10
2016,07,14,22,17,8.70
2016,07,14,22,18,10.90
2016,07,14,22,19,10.60
2016,07,14,22,21,7.60
2016,07,14,22,22,6.30
2016,07,14,22,23,6.10
2016,07,14,22,24,9.10
2016,07,14,22,26,12.40
2016,07,14,22,27,8.70
2016,07,14,22,28,8.70
2016,07,14,22,29,7.20